Location: Altenst�hlen
(53.5567°N, 8.9425°E)
Time: 13:47:44
(UTC+00:00)

ARGOS - Pass Details

Date: 23 October 2019
Orbit: 820 x 835 km, 98.5° (Epoch: 14 November)

Event Time Altitude Azimuth Distance (km) Brightness Sun altitude
Exits shadow 18:27:50 42° 89° (E) 1,172 3.4 -21.0°
Maximum altitude 18:28:39 46° 64° (ENE) 1,122 3.5 -21.1°
Drops below altitude 10° 18:33:49 10° 353° (N) 2,460 5.8 -21.8°
Sets 18:36:15 0° 348° (NNW) 3,398 6.6 -22.2°
